Regional Weather Roundup
Issued by NWS

Home | Current Version | Previous Version | Text Only | Print | Product List | Glossary On
Versions: 1 2 3 4 5 6 7 8 9 10 11 12 13 14 15 16 17 18 19 20 21 22 23 24 25 26 27 28 29 30 31 32 33 34 35 36 37 38 39 40 41 42 43 44 45 46 47 48 49 50
000
ASUS44 KLIX 300611
RWRLA
LOUISIANA WEATHER ROUNDUP
NATIONAL WEATHER SERVICE NEW ORLEANS LA
100 AM CDT MON MAR 30 2015

NOTE: "FAIR" INDICATES FEW OR NO CLOUDS BELOW 12,000 FEET WITH NO
      SIGNIFICANT WEATHER AND/OR OBSTRUCTIONS TO VISIBILITY.
      SKY/WX - SKY CONDITION AND SIGNIFICANT WEATHER.
      TMP - AIR TEMPERATURE.    DP   - DEWPOINT TEMPERATURE.
      RH  - RELATIVE HUMIDITY.  PRES - PRESSURE.
      HX  - HEAT INDEX.         WCI  - WIND CHILL INDEX.

*  THESE STATIONS ARE NOT NWS OR FAA STATIONS AND ARE NOT UNDER
   NWS QUALITY CONTROL.

LAZ040-048-061>063-065-066-069-300700-
SOUTHEAST LOUISIANA

CITY           SKY/WX    TMP DP  RH WIND       PRES   REMARKS
N.O. AUDUBON     N/A     65  65 100 MISG        N/A
6HR MIN TEMP:  65; 6HR MAX TEMP:  71;

N.O. INTL ARPT CLEAR     64  61  90 S3        30.20F
6HR MIN TEMP:  64; 6HR MAX TEMP:  71;

N.O. LAKEFRONT CLEAR     66  61  84 S6        30.21F
6HR MIN TEMP:  65; 6HR MAX TEMP:  73;

SLIDELL        CLEAR     63  62  97 S5        30.19F
6HR MIN TEMP:  63; 6HR MAX TEMP:  71;

BATON ROUGE    CLEAR     65  60  84 S9        30.17F
6HR MIN TEMP:  65; 6HR MAX TEMP:  74;

BOOTHVILLE     PTCLDY    67  64  90 SE5       30.22F
6HR MIN TEMP:  65; 6HR MAX TEMP:  70;

BELLE CHASSE   PTCLDY    58  57  97 CALM      30.19F FOG
6HR MIN TEMP:  57; 6HR MAX TEMP:  70;

BOGALUSA*        N/A     65  61  88 SW6       30.20F
6HR MIN TEMP:  65; 6HR MAX TEMP:  71;

GALLIANO*      PTCLDY    62  60  95 S7        30.21F
6HR MIN TEMP:  62; 6HR MAX TEMP:  74;

NEW ROADS*     FAIR      64  61  88 S5        30.18R
6HR MIN TEMP:  64; 6HR MAX TEMP:  73;

GONZALES*      FAIR      63  63 100 S5        30.18F
6HR MIN TEMP:  63; 6HR MAX TEMP:  74;

HAMMOND*       CLEAR     63  59  88 S5        30.20F
HOUMA*         CLEAR     66  62  86 S6        30.20F
6HR MIN TEMP:  65; 6HR MAX TEMP:  71;

PORT FOURCHON* MOCLDY    70  66  88 S5        30.24F

$$

LAZ041-044-053-054-300700-
SOUTHWEST LOUISIANA

CITY           SKY/WX    TMP DP  RH WIND       PRES   REMARKS
LAKE CHARLES   CLEAR     66  63  90 S6        30.16S
6HR MIN TEMP:  65; 6HR MAX TEMP:  72;

LAFAYETTE      CLEAR     66  63  90 S8        30.16F
6HR MIN TEMP:  65; 6HR MAX TEMP:  73;

PATTERSON      CLEAR     63  61  94 S6        30.20F
6HR MIN TEMP:  63; 6HR MAX TEMP:  72;

SALT POINT       N/A     65  63  93 S3        30.17F
6HR MIN TEMP:  65; 6HR MAX TEMP:  69; 6HR PCP:  0.01;

NEW IBERIA     CLEAR     64  62  93 S7        30.18F
6HR MIN TEMP:  64; 6HR MAX TEMP:  73;

CHENAULT AIRPK CLEAR     63  63  98 CALM      30.18R
6HR MIN TEMP:  59; 6HR MAX TEMP:  73;


$$

LAZ027-028-300700-
CENTRAL LOUISIANA

CITY           SKY/WX    TMP DP  RH WIND       PRES   REMARKS
FORT POLK      PTCLDY    64  61  90 SW6       30.16S
6HR MIN TEMP:  64; 6HR MAX TEMP:  74;

ALEXANDRIA INT MOCLDY    63  59  87 CALM      30.17R
6HR MIN TEMP:  63; 6HR MAX TEMP:  75;

ALEXANDRIA     MOCLDY    62  60  93 CALM      30.18R
6HR MIN TEMP:  62; 6HR MAX TEMP:  74;


$$

LAZ001-002-300700-
NORTHWEST LOUISIANA

CITY           SKY/WX    TMP DP  RH WIND       PRES   REMARKS
SHREVEPORT     PTCLDY    68  59  73 SW10      30.13S
6HR MIN TEMP:  66; 6HR MAX TEMP:  80;

BARKSDALE AFB  CLEAR     67  59  76 S10       30.13R
6HR MIN TEMP:  66; 6HR MAX TEMP:  79;

DTN SHREVEPORT CLEAR     67  58  72 S14G22    30.13R
6HR MIN TEMP:  67; 6HR MAX TEMP:  78;


$$

LAZ014-016-300700-
NORTHEAST LOUISIANA

CITY           SKY/WX    TMP DP  RH WIND       PRES   REMARKS
MONROE         PTCLDY    66  59  78 SW14      30.15S
6HR MIN TEMP:  66; 6HR MAX TEMP:  78;

TALLULAH       CLEAR     66  57  72 S6        30.17S
6HR MIN TEMP:  66; 6HR MAX TEMP:  77;


$$



USA.gov is the U.S. government's official web portal to all federal, state and local government web resources and services.